This is the latest recevied weather packets stored in our database for station/object AI5KP-13. If no packets are shown the sender has not sent any weather packets the latest 10 day(s).
| Time | Temp. | Humidity | Pressure | Rain* | Wind** | Luminosity | Snow |
|---|---|---|---|---|---|---|---|
| 1777598416 | 15° C | 62% | 1015.7 hPa | 0 mm | - | 0 W/m² | - |
| 1777598115 | 15° C | 61% | 1015.6 hPa | 0 mm | - | 0 W/m² | - |
| 1777597815 | 15.56° C | 59% | 1015.7 hPa | 0 mm | - | 1 W/m² | - |
| 1777597509 | 15.56° C | 60% | 1015.4 hPa | 0 mm | - | 2 W/m² | - |
| 1777597206 | 15.56° C | 61% | 1015.8 hPa | 0 mm | - | 3 W/m² | - |
| 1777596901 | 15.56° C | 59% | 1015.6 hPa | 0 mm | - | 5 W/m² | - |
| 1777596598 | 16.11° C | 60% | 1015.7 hPa | 0 mm | - | 7 W/m² | - |
| 1777596294 | 16.11° C | 57% | 1015.7 hPa | 0 mm | - | 11 W/m² | - |
| 1777595992 | 16.11° C | 57% | 1015.4 hPa | 0 mm | - | 13 W/m² | - |
| 1777595686 | 16.11° C | 57% | 1015.4 hPa | 0 mm | - | 16 W/m² | - |
| 1777595383 | 16.67° C | 55% | 1015.3 hPa | 0 mm | - | 18 W/m² | - |
| 1777595079 | 16.67° C | 54% | 1015.3 hPa | 0 mm | - | 22 W/m² | - |
| 1777594775 | 16.67° C | 54% | 1015.3 hPa | 0 mm | - | 24 W/m² | - |
| 1777594472 | 16.67° C | 51% | 1015.3 hPa | 0 mm | - | 26 W/m² | - |
| 1777594167 | 16.67° C | 50% | 1015.4 hPa | 0 mm | - | 30 W/m² | - |
| 1777593864 | 17.22° C | 51% | 1015.3 hPa | 0 mm | - | 47 W/m² | - |
| 1777593560 | 17.22° C | 48% | 1015.3 hPa | 0 mm | - | 54 W/m² | - |
| 1777593255 | 17.22° C | 49% | 1015.1 hPa | 0 mm | - | 61 W/m² | - |
| 1777592955 | 17.78° C | 48% | 1015.2 hPa | 0 mm | - | 75 W/m² | - |
| 1777592650 | 17.78° C | 50% | 1015.2 hPa | 0 mm | - | 74 W/m² | - |
| 1777592346 | 18.33° C | 46% | 1015.4 hPa | 0 mm | - | 78 W/m² | - |
| 1777592041 | 18.33° C | 46% | 1015.4 hPa | 0 mm | - | 97 W/m² | - |
| 1777591739 | 18.33° C | 46% | 1015.4 hPa | 0 mm | - | 83 W/m² | - |
| 1777591433 | 18.89° C | 45% | 1015.2 hPa | 0 mm | - | 159 W/m² | - |
| 1777591130 | 18.89° C | 46% | 1015.4 hPa | 0 mm | - | 164 W/m² | - |
* Rain latest hour (hover to see other rain measurements)
** Current wind speed in m/s (hover to see current wind gust speed)